Location: Amsterdam
(30.7274°N, 84.4357°W)
Time: 19:07:37
(UTC+00:00)

Altair - Pass Details

Date: 12 August 2024
Orbit: 1501 x 1682 km, 47.2° (Epoch: 07 September)

Event Time Altitude Azimuth Distance (km) Brightness Sun altitude
Rises 00:22:30 0° 308° (NW) 4,722 11.7 -0.7°
Reaches altitude 10° 00:25:36 10° 307° (NW) 3,716 11.1 -1.3°
Maximum altitude 00:34:55 78° 223° (SW) 1,537 7.7 -3.2°
Drops below altitude 10° 00:44:02 10° 138° (SE) 3,641 8.9 -5.1°
Enters shadow 00:46:34 - 137° (SE) 4,465 9.4 -5.6°
Sets 00:47:03 0° 137° (SE) 4,623 - -5.7°
